Theta_e
321 325 327 329 329 330 331 331 332 331 331 331 330 329 329 329 329 329 329 330 331 332 333 335 336 338 334 325 322 322 322 323 325 325 324 322 321 320 320 320 319 321 326 331 333 336 337 331 325 323 323 323 323 324 324 323 322 321 320 318 317 317 317 318 321 322 324 326 328 330 331 332 332 331 331 331 330 330 330 328 328 328 329 329 329
319 322 325 328 328 328 329 330 331 331 331 331 330 330 330 329 329 329 330 332 332 333 334 336 337 337 331 323 322 321 321 321 322 323 322 321 321 320 320 320 320 324 331 334 334 336 337 335 329 325 324 324 324 324 324 324 324 323 322 321 319 318 319 319 319 320 323 326 327 328 330 330 329 329 328 328 330 330 330 330 330 330 331 331 331
319 321 323 326 328 328 328 328 329 330 331 331 331 330 329 329 329 329 331 333 334 334 334 336 337 335 327 322 322 321 321 321 321 321 321 321 321 321 321 321 320 325 331 334 333 334 336 336 333 327 325 324 324 324 323 323 323 323 323 322 322 320 319 322 322 322 323 325 327 327 328 328 328 326 323 323 324 326 327 327 327 326 327 328 329
319 319 321 325 326 328 328 328 328 328 330 330 331 330 330 329 329 329 330 332 333 333 334 336 336 332 325 322 322 321 322 321 321 321 321 321 322 322 322 321 321 324 330 334 333 334 336 336 332 327 325 325 325 324 323 323 322 322 322 322 323 322 321 321 322 324 324 324 325 326 326 326 327 326 324 324 324 325 324 322 320 319 319 320 323
319 319 319 322 324 327 328 328 327 327 328 329 330 330 331 329 329 330 330 330 331 331 334 335 332 328 324 323 322 322 323 322 322 322 322 322 322 322 321 321 322 325 331 334 333 334 336 334 330 326 324 324 325 325 324 322 322 321 321 321 321 322 322 322 321 322 323 323 324 325 325 325 325 326 326 325 324 325 325 324 322 319 318 317 317
320 319 318 320 322 325 327 328 328 327 327 327 328 329 329 329 329 330 329 327 329 332 334 333 329 325 324 323 323 323 323 323 323 323 323 322 322 322 321 321 322 326 331 334 333 333 334 332 327 325 323 322 323 324 325 324 323 321 319 318 318 320 320 322 322 322 322 322 324 324 326 326 326 327 327 326 324 324 325 325 325 323 321 321 318
320 319 319 319 320 323 325 327 327 327 327 327 327 328 328 327 329 330 327 326 329 332 333 331 326 324 324 324 323 323 323 323 323 324 323 323 322 322 322 320 322 326 331 333 334 333 332 330 327 325 322 320 319 319 322 324 324 323 320 318 315 316 317 318 320 322 322 322 323 323 326 327 328 330 332 332 330 329 327 325 325 325 324 324 323
319 320 320 319 319 321 323 325 326 327 327 327 327 327 328 328 330 329 325 326 328 331 332 329 325 324 324 324 323 323 323 324 324 324 323 323 323 323 323 320 323 327 330 333 334 334 331 329 328 325 323 321 319 316 316 317 320 320 318 315 313 313 314 315 316 318 321 322 322 323 325 325 328 333 334 335 334 333 331 328 326 325 325 324 325
318 320 320 320 319 320 321 323 324 326 326 327 327 327 328 328 329 328 325 325 326 328 329 328 326 325 325 325 324 323 323 324 324 324 322 322 323 323 323 321 326 329 330 332 334 334 330 328 327 325 325 323 320 315 312 312 313 313 313 311 311 311 311 312 312 314 317 320 320 322 324 323 327 332 333 333 333 334 333 331 327 325 323 323 324
317 319 320 320 320 319 320 322 323 324 325 326 326 327 327 327 327 326 324 324 325 325 326 327 326 325 326 325 324 324 323 323 324 324 323 322 323 323 322 321 326 331 330 331 332 331 329 325 324 323 321 318 316 313 311 311 310 310 310 309 309 308 309 310 310 311 314 316 318 320 322 322 324 330 332 332 333 334 334 332 329 326 322 323 325
315 318 319 320 320 320 320 320 322 322 324 325 326 326 327 326 326 325 323 323 323 323 324 325 325 325 325 325 324 324 323 325 326 326 325 322 322 322 321 322 326 331 331 330 330 329 325 320 317 316 314 312 311 310 310 310 310 309 307 306 306 306 306 307 308 309 311 313 315 317 319 320 321 326 330 331 333 333 333 332 330 327 323 320 321
315 316 318 320 320 320 320 320 320 321 322 323 324 326 326 326 325 324 323 322 323 322 323 323 324 325 325 325 324 323 324 327 328 329 327 322 322 322 321 322 325 329 329 328 326 324 320 316 313 313 312 309 308 307 308 308 307 306 305 304 304 304 304 305 306 307 309 310 312 314 317 318 319 323 329 330 330 330 329 330 329 326 323 322 323
316 315 317 319 320 320 320 321 320 320 321 321 322 324 325 325 326 325 323 322 322 321 321 322 322 323 323 324 324 325 326 328 330 330 329 324 321 321 321 322 323 323 322 320 320 319 318 316 312 312 312 310 306 305 306 305 304 304 304 304 304 304 304 304 304 304 306 307 309 311 314 316 317 321 327 328 328 327 325 323 320 321 324 329 331
315 315 316 317 319 320 320 321 321 321 321 321 321 322 323 323 324 325 325 323 323 321 320 321 321 321 322 323 323 325 327 328 330 332 331 326 322 321 320 321 321 319 318 317 318 317 316 314 311 310 312 309 304 304 304 304 304 304 304 305 306 306 306 306 305 305 304 305 306 307 309 312 315 319 322 323 323 322 320 317 313 317 326 331 332
315 315 315 316 317 319 320 321 321 321 321 321 321 321 322 322 323 324 324 324 324 323 321 320 319 319 321 322 323 323 327 326 326 330 333 330 325 323 322 322 321 319 318 316 315 313 312 311 310 310 310 308 304 304 304 304 304 304 305 306 307 307 307 307 307 306 305 304 304 305 306 308 312 316 318 317 316 314 313 313 310 313 323 329 331
315 315 315 315 316 317 319 320 321 322 322 322 322 322 322 322 322 322 323 324 325 324 323 322 319 318 319 321 322 322 325 326 324 327 333 333 329 326 325 324 321 319 316 313 311 310 310 309 310 310 308 306 304 303 304 304 304 305 307 307 307 307 307 307 307 307 306 306 305 305 305 306 308 312 314 312 310 310 309 308 306 307 313 320 325
315 315 315 315 315 316 317 318 320 322 323 323 323 323 323 322 322 322 323 324 325 325 325 324 321 319 319 320 321 321 323 326 324 326 331 332 331 328 325 324 321 318 314 311 310 310 309 309 310 309 306 305 304 304 304 304 305 307 307 307 307 307 307 307 307 307 306 307 306 306 305 305 306 308 309 308 308 308 307 306 306 305 306 309 313
316 315 315 315 315 315 315 316 318 320 322 323 324 323 323 323 322 322 322 324 325 325 325 324 323 321 320 321 321 320 323 325 324 326 330 331 331 329 326 324 322 320 317 313 311 310 309 308 308 307 305 304 304 304 304 304 305 307 307 307 307 306 307 306 306 306 307 307 307 307 306 306 305 306 307 307 307 307 307 306 306 306 305 305 306
316 316 315 315 315 315 315 315 316 317 319 321 322 322 323 323 323 323 323 324 325 325 325 325 324 323 322 322 322 321 323 323 322 324 329 331 330 330 328 325 323 323 321 316 312 310 308 307 306 305 305 304 304 304 304 304 306 307 307 307 307 307 306 306 306 306 306 306 307 307 307 306 306 306 306 306 307 307 307 306 307 306 306 306 305
317 316 316 316 315 315 315 315 315 315 316 318 320 321 323 324 324 324 324 324 324 325 325 325 324 323 323 323 323 323 324 324 323 323 326 330 331 331 329 327 324 323 321 316 312 310 307 306 306 304 305 304 304 304 304 305 307 307 307 307 307 306 306 306 307 307 307 306 306 306 306 306 306 306 306 306 306 306 307 307 307 307 307 306 306
317 317 317 316 315 315 315 315 315 315 315 316 317 319 321 323 325 325 326 326 326 325 325 325 324 323 321 321 323 324 324 323 324 325 326 328 330 331 330 328 325 322 318 314 312 309 306 306 305 304 304 304 304 304 304 305 307 307 307 307 306 306 307 307 307 307 307 307 306 306 306 306 306 306 306 306 306 306 306 307 306 306 306 306 306
317 317 317 316 316 316 315 316 315 315 315 315 316 317 318 321 323 325 327 328 328 328 328 327 326 324 321 319 321 323 323 322 323 325 327 327 329 331 331 329 325 321 318 314 311 309 306 305 305 304 304 304 304 304 304 305 307 307 307 306 306 307 307 307 307 307 307 307 307 306 306 306 306 306 306 306 306 306 306 306 306 306 306 306 306
316 317 317 317 317 316 316 316 316 316 316 315 315 315 316 318 321 323 325 327 327 328 328 328 327 326 323 320 320 320 320 319 320 323 326 327 327 329 330 329 325 321 318 313 309 309 306 305 305 305 304 304 304 304 304 305 307 307 307 306 306 307 308 308 308 307 307 307 307 306 306 306 306 306 306 306 306 306 306 306 306 306 306 306 306
316 316 317 317 317 316 316 316 317 317 317 317 316 316 316 316 318 321 323 325 326 327 327 327 327 328 326 323 321 320 319 319 319 320 323 326 327 328 329 328 325 320 317 312 309 310 307 305 305 304 303 303 304 304 304 305 306 306 306 306 307 308 308 308 309 308 308 308 307 307 306 306 306 306 306 306 306 306 306 306 306 306 306 306 306
315 316 316 317 317 316 316 316 317 317 318 318 317 317 317 317 317 318 320 322 324 326 327 326 325 327 328 326 322 321 320 320 320 320 321 324 326 327 328 328 326 321 317 313 311 311 308 305 305 304 303 303 303 303 304 305 306 306 306 306 307 308 309 309 309 309 309 308 308 308 307 307 306 306 306 306 306 305 305 305 305 305 306 306 306
315 315 316 316 316 316 316 316 316 317 317 318 318 318 318 318 318 318 319 320 321 324 327 329 327 326 327 327 325 323 321 320 320 319 320 322 324 326 328 328 328 325 320 315 314 313 311 306 304 304 303 302 303 303 303 304 305 306 306 305 306 308 308 309 309 309 309 309 308 308 308 307 307 307 306 306 305 305 305 305 305 305 306 306 307
314 315 315 316 316 315 315 315 316 316 317 318 318 318 318 319 319 319 320 320 322 322 324 329 331 330 328 326 325 325 323 321 319 317 318 321 322 324 327 328 328 326 323 320 318 316 313 309 305 304 303 302 303 303 303 304 305 306 306 306 306 307 308 308 308 308 308 308 308 308 308 308 308 307 307 307 306 306 305 305 305 305 308 308 307
314 315 315 315 315 315 315 315 315 316 317 318 319 319 319 319 320 320 321 321 323 324 324 325 328 331 331 331 329 327 326 325 322 318 317 319 322 325 326 327 328 326 324 323 320 318 316 313 309 305 303 302 302 302 303 303 304 305 305 305 305 307 308 308 308 308 308 308 308 308 308 308 308 307 307 307 307 307 306 306 305 306 310 309 308
314 315 315 315 315 315 315 315 315 315 317 318 319 320 320 320 320 320 321 322 323 323 325 326 327 329 332 333 330 327 327 327 325 321 321 322 323 326 327 326 327 326 325 323 320 319 317 315 313 309 304 302 302 302 302 302 303 304 305 305 305 306 307 308 308 308 308 308 308 308 308 308 308 307 307 307 307 307 306 306 306 306 308 308 308
314 315 315 315 315 315 315 315 315 315 316 317 318 320 321 321 321 321 322 323 323 324 325 326 327 329 330 329 327 326 326 326 325 323 323 325 324 326 326 326 326 325 324 322 321 321 319 317 315 313 308 304 302 302 302 302 302 304 304 305 305 305 306 307 308 308 308 307 308 308 308 308 307 307 307 307 307 307 307 306 306 306 306 306 308
313 314 314 315 315 315 315 315 315 314 315 315 316 318 320 320 321 322 323 323 324 326 326 326 326 327 328 327 326 326 326 325 325 323 323 324 324 325 326 326 326 324 323 323 323 323 322 320 318 317 313 308 304 302 301 301 302 303 303 304 305 304 305 306 307 307 307 307 307 307 307 307 307 307 307 307 307 307 307 306 306 306 306 307 308
313 313 314 314 315 315 315 315 315 314 314 314 316 317 319 319 320 322 323 324 325 326 327 327 327 327 327 327 327 327 327 326 326 325 324 324 324 325 326 326 326 325 324 324 324 324 323 321 320 319 317 313 307 303 301 301 301 302 303 303 304 304 304 304 306 307 307 307 307 307 307 307 306 307 307 307 307 307 307 306 306 306 306 306 306
312 312 313 313 314 315 315 315 314 314 313 314 315 318 320 319 320 321 322 324 324 325 326 326 325 326 327 327 328 328 328 327 326 326 326 326 326 326 326 326 325 325 324 324 324 323 322 322 321 320 319 316 312 305 302 301 301 301 302 303 303 304 304 304 304 305 306 306 306 306 306 306 306 306 306 306 306 306 307 307 307 306 306 305 304
311 311 312 312 313 313 314 314 314 314 313 313 315 318 320 321 321 321 322 323 324 325 325 326 326 327 326 326 326 326 326 327 326 326 326 326 326 326 325 324 324 324 325 324 324 323 323 322 321 321 320 318 316 310 303 301 301 301 301 301 302 303 303 303 303 304 305 305 306 306 306 305 305 305 305 305 306 306 306 306 307 306 306 305 304
310 310 311 312 312 313 313 314 314 314 314 314 314 317 321 322 322 322 322 323 324 325 325 326 327 327 326 326 327 326 326 326 325 325 325 325 324 325 324 324 324 324 324 324 324 323 323 323 322 322 321 319 317 312 305 301 301 301 300 300 301 302 302 303 303 303 303 304 305 305 305 305 305 305 304 305 305 305 306 306 306 306 306 306 304
309 309 310 311 312 313 314 315 315 315 314 314 315 317 320 322 323 323 324 324 324 324 325 325 325 326 326 327 328 328 327 327 325 324 324 324 324 324 324 324 324 324 324 324 324 324 324 324 323 323 321 320 318 315 310 305 303 302 301 300 300 300 301 302 302 302 302 303 303 304 304 304 304 304 304 304 304 304 305 305 305 306 305 306 305
308 309 310 311 312 313 314 314 314 314 314 315 315 317 319 321 322 323 323 324 324 323 323 324 324 325 326 326 326 326 327 327 327 326 325 325 324 324 323 324 324 324 324 324 324 324 323 322 322 322 321 320 319 318 316 314 311 308 304 302 300 299 299 300 301 302 302 302 303 303 303 303 304 304 303 303 303 303 304 304 304 305 305 305 305
308 309 310 311 312 312 313 314 314 314 314 314 315 316 318 320 321 322 322 322 322 323 323 323 323 324 325 325 325 325 327 327 328 327 328 327 326 325 324 324 325 325 325 325 325 323 321 320 320 320 320 319 319 319 319 318 316 314 311 308 305 302 299 299 300 301 301 302 302 302 302 303 303 303 303 303 303 303 303 303 303 304 304 304 304
308 309 309 310 310 311 311 312 312 312 313 314 315 316 317 318 320 321 321 321 321 321 322 322 323 324 324 325 325 325 325 325 326 326 327 327 327 327 326 324 323 323 323 324 324 324 322 321 320 319 318 318 318 318 318 318 317 316 315 312 310 307 303 300 299 299 300 301 301 302 302 302 302 302 303 303 303 303 302 303 303 303 303 303 304
308 308 309 309 309 309 310 310 310 310 311 311 312 313 315 316 317 319 319 320 320 320 320 320 321 322 322 323 323 324 324 323 324 324 325 326 325 325 325 324 324 323 322 322 323 323 322 321 319 318 318 317 317 317 317 317 317 316 315 314 313 310 307 304 300 298 298 299 300 301 301 301 302 302 302 302 302 302 302 302 302 302 302 303 303
307 307 308 308 308 308 308 308 309 310 309 309 310 311 312 312 313 314 315 317 318 318 319 319 319 319 319 319 320 321 321 322 323 323 322 323 324 324 324 323 323 322 322 321 321 321 321 320 319 318 318 318 317 317 317 317 316 315 315 314 314 312 310 307 304 301 299 298 299 299 300 301 301 301 301 302 302 302 302 302 302 302 302 302 302
306 306 306 306 306 307 306 307 307 308 308 308 309 309 309 309 309 310 310 311 313 313 315 315 316 316 317 317 318 318 319 320 321 321 321 321 322 322 322 322 321 321 321 320 320 319 319 319 319 318 318 317 317 316 316 316 315 314 313 312 312 312 311 309 307 305 302 299 298 298 299 299 300 301 301 301 301 301 301 301 301 301 302 301 302
305 306 306 306 307 307 306 307 307 306 306 307 307 307 307 307 307 307 307 307 308 308 309 309 309 310 311 312 313 314 315 316 317 318 319 319 319 319 319 319 319 320 319 319 318 318 318 318 318 317 316 316 315 315 314 314 313 312 311 309 308 309 309 309 310 308 305 302 300 299 298 298 299 299 300 300 301 301 301 301 301 301 301 301 301
306 306 307 307 307 307 308 307 307 307 307 307 306 306 306 306 306 306 306 306 306 306 306 306 306 306 306 306 307 308 309 310 310 311 312 313 314 315 315 316 317 317 317 317 316 317 317 317 316 316 315 314 313 313 312 311 311 310 309 306 305 305 305 306 307 307 305 302 299 298 298 298 298 298 299 299 300 300 301 301 301 301 301 301 301
306 306 306 307 307 307 307 307 307 307 307 306 306 306 306 306 306 306 306 306 306 306 306 306 306 305 305 305 305 305 305 305 305 306 306 307 307 308 309 310 311 312 313 314 314 315 315 315 315 315 314 314 313 312 311 311 310 309 308 306 305 304 303 303 304 305 305 302 300 299 299 298 298 298 298 298 299 299 299 300 300 300 300 300 301
305 305 305 305 305 305 305 305 306 306 306 306 305 305 305 306 306 306 306 306 306 306 306 306 306 306 305 305 304 304 304 304 304 304 304 304 304 304 305 305 306 306 308 309 310 311 312 313 313 312 312 312 312 311 311 310 309 308 307 306 305 304 304 304 303 303 305 305 304 303 301 299 298 297 297 298 298 298 299 299 299 300 300 300 300
304 304 304 304 304 304 304 304 304 304 304 304 304 304 304 305 305 305 305 305 305 305 305 305 305 305 305 304 304 304 304 303 303 303 303 303 303 303 303 303 303 304 304 305 306 307 309 310 310 310 310 310 310 310 310 309 308 308 307 306 304 303 302 302 301 301 302 303 305 304 303 301 299 298 298 298 297 297 298 298 298 299 299 300 300
303 303 303 303 303 303 303 303 302 302 302 302 302 303 303 303 303 303 303 303 303 304 304 304 304 304 304 304 304 304 303 303 303 303 302 302 302 302 302 302 302 302 302 302 303 303 305 306 307 307 308 308 308 308 308 308 307 307 306 305 304 302 301 300 300 300 299 299 301 303 304 303 302 300 299 299 298 297 297 297 298 298 299 299 299
302 302 302 302 302 302 302 302 302 301 301 301 301 301 301 301 301 302 302 302 302 302 302 302 302 302 303 303 303 303 302 302 302 302 302 301 301 301 301 301 300 300 300 300 300 300 301 302 303 304 305 305 306 306 306 306 306 305 305 305 304 303 302 300 300 299 298 297 298 300 302 302 302 301 300 299 298 298 297 297 297 297 298 298 299
302 301 301 301 301 301 301 301 301 301 301 300 300 300 300 300 300 300 301 301 300 301 301 301 301 300 301 301 301 301 301 301 301 301 301 301 300 300 300 300 300 299 299 299 299 299 299 299 299 300 301 302 303 303 304 304 304 304 304 303 303 302 301 301 300 299 298 297 297 297 299 299 300 301 301 300 299 298 297 297 297 297 297 297 298
301 301 301 300 300 300 300 300 300 300 300 300 300 300 299 299 299 299 299 299 299 299 299 299 299 298 299 298 298 298 299 299 299 299 299 299 299 299 298 298 298 298 298 298 298 298 298 298 297 298 298 298 299 300 301 302 302 303 303 302 302 302 301 300 300 299 298 297 297 296 297 298 298 299 300 300 299 299 298 297 297 297 297 297 297
Wind_Speed
9 14 15 16 16 17 17 17 16 17 17 16 17 17 17 17 16 15 14 12 10 9 8 8 8 7 7 7 7 7 6 6 6 5 5 5 4 3 3 3 4 5 6 6 6 5 2 2 4 4 6 7 7 7 7 7 7 7 7 6 6 6 6 6 6 7 7 7 6 6 6 6 7 7 6 6 5 4 4 3 3 2 3 3 3
6 12 15 17 16 16 16 16 16 17 17 16 16 16 16 16 15 14 14 12 11 10 9 9 8 8 9 9 8 7 7 6 6 6 5 4 3 3 2 2 3 5 5 4 3 3 2 2 4 3 4 5 6 6 6 6 6 6 7 6 6 6 6 6 6 7 7 7 6 6 6 6 7 6 6 6 5 5 4 4 3 3 3 3 3
3 9 12 16 16 15 15 15 15 16 17 17 16 15 15 15 14 13 12 12 11 10 10 10 9 10 10 10 9 8 7 7 6 6 5 4 3 2 2 1 2 3 4 4 3 3 3 3 3 2 1 4 4 4 5 5 5 5 5 5 5 4 4 5 6 7 7 7 6 6 6 5 6 5 5 5 5 5 5 4 4 4 4 4 4
2 6 10 14 16 15 15 14 14 15 16 16 16 15 15 15 13 12 11 11 11 11 11 11 11 11 11 10 9 8 7 6 6 5 5 4 3 2 2 2 2 3 5 4 4 4 3 3 2 1 0 3 4 3 4 4 4 4 4 4 4 4 3 3 4 5 6 6 6 5 5 5 5 4 4 3 4 4 3 3 3 3 4 4 4
2 4 8 12 15 15 15 14 14 14 15 16 16 16 15 14 13 11 10 10 11 11 11 11 11 12 11 10 9 8 6 5 4 4 4 4 3 3 3 3 3 3 5 4 4 5 5 3 1 1 1 2 4 3 4 4 4 3 3 3 3 3 3 3 3 3 4 4 5 4 4 3 4 3 2 1 1 1 1 2 2 3 4 4 4
3 3 6 10 13 14 15 14 14 13 14 15 15 15 15 14 12 11 10 10 11 11 11 11 11 11 10 8 7 6 5 4 3 3 3 4 4 4 4 4 4 4 6 5 5 7 6 4 2 2 2 1 3 3 4 4 4 3 2 2 2 3 4 4 3 3 4 4 4 4 3 3 2 2 1 0 1 2 2 2 2 2 2 3 4
4 3 5 8 11 13 14 14 14 13 13 13 14 15 14 13 11 10 10 9 10 11 11 11 11 11 9 8 7 6 5 5 4 4 4 5 6 6 5 5 4 5 7 7 6 7 8 6 4 4 4 3 3 3 4 5 5 5 4 4 4 5 5 5 5 5 6 6 6 5 4 4 3 3 2 0 1 2 2 3 3 3 3 2 3
5 4 4 6 9 12 13 14 14 14 13 12 13 14 13 13 11 10 10 10 10 11 11 12 12 11 10 9 8 7 7 6 5 5 5 6 7 6 6 5 5 6 8 7 7 7 8 7 5 5 5 6 6 6 6 6 7 7 7 7 7 8 8 7 7 7 7 8 7 6 6 4 4 4 3 1 1 2 2 3 3 3 4 4 4
5 5 4 4 7 10 12 13 14 14 14 13 13 13 13 12 12 11 11 11 11 11 12 12 13 12 11 10 9 8 8 7 7 7 6 6 6 6 5 5 6 7 8 8 8 7 5 5 5 6 7 8 9 9 9 8 8 8 8 9 9 10 9 9 8 9 8 8 8 7 7 5 5 5 3 2 3 3 3 3 3 3 4 5 5
4 5 5 4 5 8 11 13 14 14 14 14 14 13 13 13 12 12 12 12 11 11 12 13 13 13 12 11 10 9 9 9 8 7 5 5 5 6 5 6 7 7 8 8 9 8 5 5 8 8 8 9 11 11 10 9 8 7 7 8 9 10 10 9 9 10 10 9 9 8 8 5 5 6 4 3 4 5 5 5 4 4 5 5 6
2 4 5 5 4 6 10 12 14 14 14 15 15 14 14 14 13 13 13 13 13 12 12 13 14 14 14 12 11 10 9 8 8 6 4 5 6 7 7 7 8 8 8 9 11 10 9 10 9 7 7 8 9 10 9 8 7 6 6 6 7 8 8 9 9 10 11 10 9 9 9 7 6 6 6 5 6 6 7 7 7 6 6 7 7
2 3 5 6 5 6 8 11 13 14 15 15 15 15 16 15 15 14 14 14 14 14 13 14 14 15 15 13 11 10 9 8 8 6 5 5 7 8 7 8 9 9 9 10 11 11 11 12 9 6 6 7 7 7 7 6 4 4 4 4 4 4 5 6 7 9 11 11 10 10 10 9 7 6 7 6 7 8 8 9 8 6 6 6 7
2 3 5 6 7 6 7 10 12 14 15 15 15 16 16 16 16 16 15 15 15 15 14 15 15 16 15 14 12 9 9 8 8 8 6 6 7 7 7 7 8 9 10 10 11 12 12 12 10 6 6 7 6 5 5 3 3 3 3 2 2 1 2 3 4 6 9 10 10 11 11 10 8 7 7 8 8 8 8 8 6 4 4 5 5
2 3 4 6 7 7 7 9 11 13 15 15 16 16 17 17 17 17 16 16 15 15 15 15 16 16 16 15 12 10 10 9 9 10 9 8 8 8 7 8 8 8 9 9 11 12 13 13 12 7 6 7 6 5 4 3 3 3 3 2 1 1 1 1 2 4 6 7 9 9 10 10 10 9 9 10 11 11 11 10 6 4 3 3 6
3 3 4 6 7 8 8 9 10 12 14 15 16 17 17 17 17 17 17 17 16 16 15 15 15 16 16 15 13 11 11 11 11 11 10 10 10 10 8 8 8 8 9 10 11 12 13 12 11 7 6 8 5 5 4 4 4 3 3 2 2 1 1 1 2 3 4 5 7 8 8 9 10 10 11 11 12 12 11 9 6 5 8 7 7
3 3 4 6 7 8 9 9 11 12 14 15 16 17 18 18 17 18 17 17 17 17 16 16 15 15 15 15 13 12 11 11 12 13 12 11 12 12 10 10 9 9 10 11 11 12 12 11 9 6 5 7 5 5 5 4 4 3 3 2 1 1 1 1 2 2 3 4 5 7 7 8 9 10 12 12 12 11 9 7 7 6 9 10 10
5 4 4 6 7 8 9 10 11 12 14 15 16 17 18 18 18 18 18 18 18 18 18 17 16 15 15 14 14 13 12 12 12 14 14 12 13 13 12 10 10 10 11 11 10 12 11 8 7 6 6 6 6 6 5 5 4 3 3 2 1 1 1 2 2 2 3 4 5 6 7 7 9 10 12 13 13 11 9 9 8 7 8 10 13
6 6 6 6 7 8 9 10 11 12 13 15 16 17 18 19 19 18 18 18 18 18 18 18 17 16 15 15 14 14 13 13 13 14 15 15 15 15 14 11 11 11 11 10 10 11 9 6 5 6 6 6 7 7 6 5 5 4 4 3 3 3 3 4 4 4 4 4 5 6 7 7 8 10 11 13 13 12 11 10 10 9 9 10 12
9 8 7 8 8 9 10 11 12 13 14 14 15 16 17 18 18 18 19 18 18 19 18 18 17 17 16 16 15 15 14 14 15 16 17 17 16 17 16 14 12 11 11 11 11 11 9 6 5 6 7 7 7 7 7 6 6 6 5 5 5 5 6 6 6 6 6 5 6 6 7 8 9 10 11 12 13 12 11 11 11 10 10 11 12
12 11 9 9 9 10 11 12 12 13 14 14 15 16 16 17 18 18 19 18 18 18 18 18 18 18 18 17 17 16 16 16 16 17 18 18 18 17 18 18 14 12 12 11 11 12 9 6 6 6 8 8 8 8 8 7 7 7 6 6 6 7 7 7 7 7 7 6 7 7 7 8 9 10 11 11 12 12 12 11 11 11 11 11 12
13 13 11 11 11 10 11 12 13 14 14 15 15 16 16 16 17 18 18 19 19 18 19 19 19 18 18 18 18 17 16 17 17 18 19 19 19 18 18 19 16 13 13 11 11 11 9 7 6 8 9 9 10 9 9 8 9 8 8 7 7 8 8 7 8 7 7 7 7 7 8 8 9 10 10 11 11 11 12 11 11 12 12 12 12
14 14 13 11 11 10 10 11 12 14 15 15 16 16 17 17 18 18 19 19 19 19 19 19 19 19 18 18 18 18 17 17 17 18 19 20 20 19 18 19 17 14 14 13 12 11 9 7 7 9 10 10 11 11 10 10 10 10 9 8 8 8 8 7 7 7 7 7 7 7 8 8 9 10 10 11 11 11 11 11 11 11 12 12 12
16 15 14 13 12 10 10 10 10 12 14 15 16 16 17 18 18 19 19 19 20 19 20 20 20 20 19 19 18 18 18 17 17 18 19 20 20 19 19 20 18 15 14 14 12 12 10 8 8 9 10 12 12 12 11 11 11 11 10 9 9 8 8 8 8 8 8 7 7 7 7 8 8 9 10 10 11 11 11 11 11 11 11 12 12
16 16 15 14 13 11 10 10 10 10 11 13 14 16 17 18 18 19 20 20 20 20 20 20 20 21 21 20 19 19 19 18 18 18 19 20 20 20 19 20 19 16 14 13 12 12 11 10 9 9 10 14 13 12 12 12 12 12 11 10 9 9 9 9 9 9 9 9 9 9 8 8 8 8 9 10 11 11 11 11 11 11 11 12 12
15 15 14 14 14 13 11 10 9 9 9 10 11 12 14 16 17 18 20 20 20 21 21 21 21 22 23 22 20 20 20 19 19 20 20 20 21 21 21 21 20 18 16 13 11 12 13 12 10 8 11 15 15 14 13 13 14 13 12 11 10 10 9 10 10 10 10 10 10 11 10 10 10 9 10 10 11 11 11 12 12 12 12 12 12
14 14 14 13 13 12 10 9 8 8 8 8 9 10 10 12 14 16 18 20 20 20 21 23 23 22 23 23 23 21 21 21 21 21 21 21 22 22 22 23 23 22 19 13 11 13 14 14 11 9 11 15 16 15 14 14 15 14 13 12 11 10 10 10 10 11 11 11 11 11 12 12 12 12 12 12 12 12 12 12 12 13 13 12 12
14 14 13 12 12 11 9 7 7 7 7 7 7 8 9 9 11 12 15 17 19 20 19 22 25 25 25 23 22 22 22 22 21 22 22 22 23 23 23 25 25 24 20 15 14 15 15 15 13 11 12 16 18 17 16 15 15 15 14 13 12 12 11 11 11 12 12 12 12 12 12 13 13 13 13 14 14 13 13 13 12 13 12 11 11
13 13 13 12 12 11 10 9 8 7 7 7 7 7 8 9 10 11 12 14 16 18 18 19 22 24 25 25 24 23 23 23 23 22 23 23 23 23 25 26 26 23 20 18 17 16 16 17 16 13 13 16 19 19 18 17 16 16 16 15 14 13 13 13 13 13 12 12 12 12 13 13 13 14 14 14 15 15 14 14 13 13 11 12 11
12 12 12 12 12 12 11 11 10 9 8 7 7 6 7 8 9 10 10 11 12 13 15 18 20 21 23 26 26 24 24 25 24 22 22 23 23 24 26 25 24 22 22 21 19 17 18 18 17 16 14 15 19 20 20 19 18 18 17 17 16 15 15 14 14 14 13 13 13 13 13 13 13 14 14 14 15 16 15 15 15 13 12 13 11
10 10 11 12 12 13 11 10 10 10 9 9 7 6 6 6 7 8 9 10 10 10 12 13 15 18 21 24 22 20 20 21 23 21 22 24 24 24 24 24 23 24 23 22 20 21 20 18 18 17 16 16 18 21 22 21 20 19 19 18 17 17 16 16 16 15 15 14 14 14 14 14 14 14 14 14 15 15 16 16 16 15 14 13 12
8 8 9 10 11 12 11 10 10 9 8 9 8 8 6 5 5 6 7 8 8 8 9 9 10 13 15 17 16 15 15 16 17 18 20 23 23 23 23 24 24 24 23 22 22 23 22 20 18 18 18 18 18 21 23 23 22 21 20 20 20 19 18 17 17 17 16 16 15 15 15 14 14 14 14 14 15 15 15 16 16 16 15 14 12
7 7 7 7 8 9 10 11 10 9 8 8 8 9 8 6 5 5 5 6 7 8 8 8 8 9 11 12 13 13 13 13 14 15 17 20 21 22 23 24 25 24 23 23 23 23 22 20 18 18 18 19 20 22 24 25 24 23 22 22 21 21 20 19 18 18 18 18 17 16 16 15 15 15 15 15 15 15 16 16 17 17 16 15 13
6 7 6 5 5 7 8 10 11 11 10 8 8 8 8 8 7 6 4 3 4 5 6 6 6 7 8 10 11 12 12 13 13 12 14 17 19 21 22 23 24 22 21 21 21 21 20 18 17 17 18 19 20 23 24 25 25 24 24 24 23 22 22 21 20 20 19 19 19 18 18 17 16 16 16 15 15 16 16 16 17 17 17 16 14
7 7 7 6 5 6 8 10 11 11 11 9 8 8 8 8 7 7 5 4 3 3 4 5 6 7 8 8 9 10 11 11 12 12 11 12 14 16 17 18 18 18 18 19 19 19 19 18 17 18 18 18 19 21 24 25 25 26 25 25 25 24 24 23 22 21 21 21 20 20 20 19 18 17 17 17 16 16 17 17 17 17 18 17 16
7 7 7 6 5 5 7 8 9 10 9 9 8 8 8 7 7 6 6 5 5 4 4 4 5 6 8 9 10 10 10 11 11 11 11 12 12 12 13 13 14 15 16 17 17 17 18 18 18 19 20 19 17 18 22 25 26 27 27 27 26 26 26 25 24 23 22 22 22 22 22 21 20 19 18 18 18 18 17 18 17 18 18 18 18
5 4 4 4 4 4 4 5 6 6 6 6 7 7 7 6 6 5 5 6 6 5 5 5 6 7 8 10 11 11 12 13 12 11 11 12 12 12 12 12 13 14 14 15 16 17 18 19 20 20 20 20 18 17 18 21 23 25 27 28 28 28 27 27 26 25 24 24 24 24 23 23 22 21 20 19 19 19 19 19 18 18 18 18 19
1 1 1 2 2 1 1 2 3 3 3 4 5 6 6 6 5 5 5 5 5 6 6 6 6 7 8 9 10 11 13 14 15 14 13 12 13 13 13 14 14 15 15 16 16 17 18 20 21 22 22 21 20 18 18 19 20 21 23 26 28 30 29 28 27 26 26 26 26 26 25 24 24 23 22 21 21 21 21 21 20 19 19 19 20
2 2 2 1 1 1 2 1 2 2 1 2 3 4 4 4 4 5 5 5 5 4 5 5 5 6 7 9 10 11 12 14 16 18 18 18 16 14 14 15 16 17 17 17 17 18 20 22 22 22 22 22 22 20 20 20 20 21 22 23 26 29 30 30 28 28 28 29 28 27 27 27 26 25 24 23 23 23 23 22 22 21 21 20 20
4 4 4 3 2 2 2 1 1 1 0 1 2 2 3 3 3 4 4 4 5 5 4 4 4 3 4 5 7 9 11 12 13 14 16 18 19 18 17 16 16 15 15 17 17 18 20 21 20 20 21 22 22 21 21 21 22 23 23 23 25 26 28 29 30 30 30 31 30 30 30 30 29 27 26 26 25 25 25 25 24 23 22 22 22
5 5 4 4 5 5 4 4 4 4 3 1 1 2 3 3 3 3 4 4 5 5 5 5 5 5 4 4 5 6 8 10 11 12 13 15 16 17 18 19 18 17 17 17 18 17 17 18 18 19 20 22 21 21 22 22 23 24 25 26 26 26 26 27 30 32 32 32 32 33 33 32 31 30 29 28 27 27 27 27 26 25 24 23 23
7 7 7 8 10 9 8 9 10 8 6 5 4 2 2 2 2 2 2 3 3 4 4 5 7 7 7 8 9 8 8 8 9 12 13 14 14 13 14 15 16 17 17 17 17 17 16 16 17 18 19 20 21 21 21 23 24 25 26 27 27 27 27 28 29 31 32 33 34 35 34 34 33 33 32 31 30 30 30 29 28 27 26 25 25
13 14 14 16 16 16 16 16 15 14 13 12 10 8 8 6 5 5 4 3 2 1 2 3 4 6 8 9 11 12 12 12 12 13 14 16 16 16 15 14 15 15 16 16 16 17 16 17 18 18 19 20 21 21 21 22 24 25 26 28 29 29 28 28 28 29 30 32 34 35 36 36 36 35 35 34 33 32 32 31 30 29 28 27 26
22 22 22 22 22 23 23 22 21 21 20 19 17 15 14 12 10 10 9 8 8 6 5 3 2 2 4 6 8 10 12 14 15 16 17 18 19 20 20 20 19 20 20 20 20 20 19 19 19 19 19 20 21 21 21 21 23 24 25 26 27 28 29 29 28 28 28 29 31 33 36 37 38 37 37 37 36 35 34 34 33 32 30 30 29
27 27 26 26 26 26 25 24 24 24 23 22 21 20 17 16 16 15 14 14 14 13 11 10 8 6 5 4 4 6 8 10 11 13 15 16 17 18 19 21 21 22 22 23 23 22 21 21 21 21 21 21 21 21 20 19 21 21 21 22 22 23 25 26 27 28 27 26 26 27 29 32 34 36 39 39 38 38 37 36 35 34 33 32 31
28 27 26 26 25 25 24 23 23 23 23 22 21 19 17 17 17 17 17 17 18 16 14 14 13 11 10 8 7 5 5 5 7 8 10 11 12 14 15 17 18 20 21 22 22 23 23 22 22 22 22 21 21 20 20 20 19 19 20 22 21 19 20 22 27 30 26 23 23 24 25 26 27 30 33 36 38 39 39 39 38 37 35 33 32
26 25 25 24 24 23 23 22 22 22 22 21 19 17 16 16 15 15 16 15 15 15 15 15 14 12 12 11 9 8 6 5 5 5 6 7 8 10 11 12 14 16 17 18 20 21 21 22 22 23 22 22 21 21 21 20 19 18 19 22 22 23 25 26 29 32 32 30 29 29 29 28 26 26 27 29 32 35 38 39 40 39 37 35 34
25 23 23 23 22 22 21 21 21 21 20 19 17 15 14 13 12 12 12 12 13 14 15 14 12 12 11 10 9 8 7 6 5 4 4 4 5 7 8 9 11 12 13 15 16 17 19 20 21 22 22 22 22 23 23 22 21 20 19 20 22 25 27 29 30 33 36 38 36 34 32 32 32 32 32 32 32 33 34 35 37 39 39 38 37
22 21 21 21 21 20 19 19 19 18 18 16 14 13 12 12 11 11 11 12 12 13 13 11 11 10 9 8 8 8 8 7 6 6 5 5 5 5 6 7 9 10 11 12 13 14 15 17 18 19 21 21 22 23 24 24 23 23 22 21 22 23 25 27 29 31 35 40 42 41 38 37 37 39 38 38 37 36 35 34 33 34 36 38 38
19 19 19 19 18 18 17 16 17 16 16 14 13 13 12 12 11 10 11 12 12 12 11 10 10 8 7 7 7 7 7 7 7 8 8 7 7 7 7 7 8 9 10 11 12 13 13 14 15 17 18 20 21 22 24 24 24 24 24 24 24 24 25 26 27 29 32 37 41 42 41 41 41 41 39 39 40 39 38 37 36 35 35 35 36
17 16 16 16 15 15 14 14 15 15 14 13 12 12 12 11 11 10 11 11 11 10 8 8 8 7 6 6 6 6 6 6 7 8 8 9 9 9 9 9 10 10 11 11 11 11 12 13 14 15 16 17 19 20 22 23 24 25 24 24 25 25 25 26 26 27 29 31 36 38 39 41 43 45 42 40 40 40 39 39 38 38 37 35 34
15 13 13 13 12 13 12 12 13 12 11 10 10 10 9 9 9 9 9 9 8 6 5 6 7 6 6 6 7 6 6 6 7 7 8 9 9 10 11 12 12 12 13 13 14 14 13 13 13 13 14 15 17 18 20 21 23 24 25 25 26 26 25 26 26 27 27 30 34 37 37 39 43 46 44 42 42 41 41 41 40 38 38 37 35
Wind_Direction
185 168 168 175 183 186 190 192 191 193 195 195 194 196 197 200 200 202 203 202 207 206 200 192 186 178 170 158 153 150 147 144 143 143 146 148 137 122 100 85 80 73 73 74 82 103 81 66 118 140 146 147 148 144 139 137 133 131 129 131 135 143 152 153 151 143 142 141 138 131 125 121 118 120 119 116 115 117 121 125 126 111 92 90 95
190 179 170 172 183 187 192 196 196 197 199 202 204 207 207 209 209 210 211 208 208 206 203 197 190 181 174 163 161 160 155 152 151 153 153 151 135 117 98 79 80 82 89 101 106 127 126 98 114 118 141 154 154 151 144 139 134 131 127 125 127 134 143 152 153 147 147 147 143 139 132 123 119 116 113 110 109 109 110 111 109 99 85 81 84
175 190 180 172 180 187 193 198 200 201 203 207 209 212 214 216 218 220 220 218 214 211 207 198 189 182 179 171 171 170 165 162 161 161 157 155 145 140 131 113 112 117 126 133 146 165 168 142 128 84 131 166 161 159 153 145 140 135 133 131 130 133 141 146 150 150 155 155 153 150 143 134 124 119 115 111 106 103 103 105 103 96 94 90 86
132 191 191 178 179 185 192 198 202 204 207 212 213 214 216 221 226 230 226 224 224 223 214 201 191 185 184 179 178 178 176 173 171 171 170 174 171 177 167 162 163 149 141 148 175 183 190 172 153 0 154 173 170 171 164 156 148 143 143 145 146 152 159 158 157 158 164 164 164 161 155 150 139 129 122 116 106 102 103 101 101 99 102 104 100
136 182 199 191 184 183 189 196 202 205 209 215 218 219 220 225 229 230 227 228 228 226 218 207 197 189 188 185 184 186 185 181 178 186 195 206 207 205 192 184 182 164 151 162 190 188 195 192 200 313 269 176 173 183 185 178 161 152 155 161 168 176 186 189 183 176 181 182 182 178 175 169 151 141 139 150 138 123 140 121 116 112 106 111 112
167 170 198 201 194 187 188 192 200 205 210 215 219 223 226 231 231 228 226 228 225 221 215 209 203 196 196 196 197 198 197 196 195 208 229 242 245 237 217 205 187 175 171 176 200 202 201 202 242 263 261 223 185 198 205 206 196 186 189 206 216 207 211 209 200 198 209 213 215 217 215 209 177 147 121 224 230 220 225 219 202 176 145 122 116
184 169 188 203 204 196 192 192 196 202 209 214 218 223 227 232 233 233 231 225 218 214 211 209 207 203 207 211 214 218 221 224 224 233 249 251 247 243 230 216 192 185 188 191 207 213 207 207 231 248 260 264 249 241 224 224 223 220 229 246 250 240 236 231 223 215 218 226 231 234 232 227 197 143 110 73 283 256 231 227 228 223 214 189 153
189 182 184 194 207 204 200 197 197 201 205 211 217 222 225 229 232 234 233 226 216 210 209 210 210 210 215 221 225 230 238 243 250 260 265 256 240 231 227 215 191 195 204 202 213 226 219 209 225 249 270 284 289 283 259 244 238 237 244 252 253 249 246 240 237 229 222 228 233 232 231 231 202 162 140 175 291 279 250 232 231 234 237 234 222
196 190 188 187 200 206 208 205 203 203 204 208 214 219 223 227 231 232 230 226 220 212 211 214 214 217 221 226 231 235 243 253 264 274 273 256 236 223 215 198 184 197 216 215 227 244 230 214 243 266 281 291 295 291 281 266 253 250 251 252 251 248 246 243 244 241 233 229 233 232 231 236 212 186 166 215 249 258 246 239 243 252 254 250 245
211 194 193 194 196 206 211 212 211 209 207 209 213 216 221 225 229 232 230 228 226 220 217 219 221 223 226 231 236 240 249 259 269 278 270 244 222 212 202 190 189 200 220 226 237 252 256 254 268 279 283 284 286 287 285 278 268 262 258 255 252 248 245 244 246 247 245 237 236 238 236 239 225 202 186 213 238 250 248 250 261 271 271 260 253
241 212 205 203 202 207 211 215 216 215 213 212 215 217 220 223 226 230 231 231 232 230 226 226 228 230 232 236 240 243 251 261 266 274 266 236 209 199 197 193 197 209 222 230 241 255 273 276 276 281 280 278 278 278 278 275 270 265 260 255 253 252 249 246 246 248 251 250 246 246 245 243 236 215 207 222 237 252 257 259 267 274 279 274 266
278 236 217 213 215 212 211 216 219 219 218 218 218 219 222 224 225 229 231 233 235 237 236 235 235 236 237 239 243 246 253 259 259 264 261 232 207 198 199 204 207 218 232 244 254 266 278 281 280 278 279 279 277 276 269 265 262 250 242 240 247 254 256 253 250 249 252 256 256 255 254 250 242 224 216 228 243 253 256 254 260 270 283 285 277
315 261 237 226 223 220 217 217 220 222 222 223 223 223 226 227 228 230 232 234 237 240 241 241 241 242 242 242 242 241 247 253 253 257 254 228 209 201 202 215 225 233 248 259 266 272 278 282 283 276 279 280 277 279 268 254 238 218 209 208 222 237 256 264 257 254 253 257 262 264 265 263 254 237 226 231 243 250 253 257 256 249 277 293 282
326 279 256 244 235 229 223 219 221 223 225 227 226 227 229 231 232 233 235 236 239 243 244 243 243 244 245 245 240 234 235 241 247 251 252 237 216 211 212 223 241 251 258 263 268 273 277 282 283 281 274 269 270 274 258 231 214 199 197 197 197 204 224 265 268 266 260 260 264 267 271 272 268 256 247 244 249 256 263 272 269 209 199 260 264
314 287 267 257 249 240 232 224 222 224 227 230 230 230 232 234 235 237 238 239 241 245 246 246 246 244 244 244 239 232 232 238 246 245 246 247 233 224 227 236 249 261 268 270 274 278 279 279 281 287 269 259 260 260 244 219 209 201 205 199 186 189 208 254 272 276 276 273 270 270 271 272 272 266 263 263 264 271 278 285 281 224 199 211 237
313 290 277 267 259 254 245 234 226 225 228 232 234 234 235 237 237 239 240 241 244 246 248 248 247 244 243 242 236 230 230 234 240 242 240 246 245 235 236 247 257 269 279 283 289 289 287 284 282 286 268 261 258 250 240 225 222 217 216 209 193 195 216 250 267 274 281 282 278 275 273 272 272 266 269 279 285 291 301 302 297 262 229 225 234
327 302 293 281 269 264 258 249 237 229 229 232 235 237 238 241 240 241 241 242 244 247 249 251 250 246 243 240 235 229 227 230 233 237 237 241 247 245 246 255 265 278 288 296 304 300 298 298 287 276 265 264 259 248 241 236 238 237 240 248 256 276 284 279 281 278 277 278 279 279 276 274 272 269 273 285 297 307 311 305 301 287 265 251 249
330 316 302 289 276 269 263 258 250 240 234 232 233 235 237 241 243 243 243 243 244 247 250 251 252 248 244 239 236 230 225 228 232 234 235 238 246 251 257 262 270 283 292 301 309 303 305 310 285 265 260 259 256 249 243 246 250 253 263 276 288 295 294 295 291 286 282 280 281 282 280 277 274 273 275 283 296 308 308 305 302 296 286 274 267
317 317 308 300 287 272 263 258 255 251 246 240 237 235 235 238 242 244 245 245 245 248 249 250 252 250 247 241 239 236 231 230 232 234 235 240 245 252 259 263 270 281 288 299 308 301 302 303 278 259 256 252 249 245 244 248 254 259 266 277 288 294 294 295 293 291 288 287 285 285 284 283 281 279 279 284 294 302 303 303 302 300 293 287 284
307 310 310 307 299 281 269 261 257 256 254 252 248 244 239 239 241 243 245 247 247 248 250 249 249 249 247 245 242 239 237 236 233 235 236 240 244 250 259 265 270 276 283 294 303 298 296 288 265 251 252 249 244 241 243 247 252 257 261 270 281 287 290 290 289 291 289 290 288 286 286 285 285 284 284 288 292 297 300 301 300 298 296 292 290
304 304 307 309 309 300 281 268 263 261 260 259 257 253 249 244 243 243 242 244 246 248 250 249 248 247 246 245 244 242 240 240 237 237 237 239 244 249 257 266 270 274 282 291 294 291 288 280 260 247 249 247 241 239 240 245 250 254 259 267 276 281 286 287 288 290 289 289 288 288 288 287 287 287 288 289 290 293 296 298 297 296 294 292 290
295 293 296 300 306 306 295 281 271 265 263 263 261 260 256 251 248 245 243 242 243 244 245 247 247 245 244 244 243 242 243 243 240 239 240 242 244 247 253 264 270 275 283 287 288 287 282 276 262 247 248 246 241 240 242 246 250 254 260 268 277 283 286 289 291 292 292 291 289 289 288 289 289 290 291 292 293 294 294 295 293 293 292 291 289
289 287 287 287 289 292 292 289 284 276 269 265 264 264 262 259 254 251 249 246 245 244 243 245 246 244 242 242 243 244 245 246 244 241 242 246 248 248 254 262 267 272 277 281 285 288 284 276 262 249 246 248 246 243 244 248 252 256 261 269 277 284 289 292 295 298 299 297 295 293 290 290 290 292 294 294 296 296 295 294 293 292 291 291 289
290 287 282 277 279 282 285 285 283 282 279 274 269 266 265 264 261 258 255 252 250 248 247 245 244 245 244 242 243 246 248 247 247 244 243 246 250 251 254 260 265 268 272 279 287 289 284 275 265 256 245 246 248 245 245 249 253 256 261 269 276 281 287 291 297 301 301 302 302 301 299 297 296 297 298 299 301 302 302 301 299 297 295 293 291
292 287 278 271 273 278 279 278 275 274 278 281 281 275 270 267 265 263 261 259 256 253 253 252 247 243 243 245 246 247 248 248 247 246 245 245 248 251 251 254 259 267 274 279 288 290 285 276 269 262 248 247 251 247 244 247 251 255 259 266 272 277 283 287 294 296 298 300 302 304 305 306 306 305 305 305 306 308 309 308 306 303 301 299 297
287 282 279 271 268 272 271 272 274 270 269 277 285 286 282 275 268 265 263 262 261 257 253 255 257 252 245 244 246 248 250 249 247 246 245 244 247 250 252 253 257 266 273 277 287 290 286 279 270 263 252 249 252 252 250 250 253 257 261 267 271 275 279 284 289 291 294 297 299 302 304 307 309 310 310 309 311 312 312 311 309 307 305 304 302
278 275 273 266 261 260 257 253 257 260 261 266 275 285 291 289 280 271 265 263 263 263 255 249 253 256 256 254 251 252 254 254 252 249 246 244 246 249 250 254 260 266 272 277 285 288 286 281 270 261 253 248 250 253 253 253 256 261 265 269 272 275 277 280 284 285 289 292 295 299 301 305 307 309 310 310 312 312 313 311 310 307 305 307 307
276 270 266 260 254 251 248 243 239 239 247 255 264 279 290 293 290 282 274 269 264 264 265 258 251 252 259 264 264 262 261 260 258 253 250 248 246 249 251 255 262 268 271 276 282 286 288 285 273 262 254 249 248 250 252 252 254 258 262 264 267 270 272 274 276 278 282 285 289 292 296 300 302 305 307 309 310 310 311 309 310 310 304 308 311
275 268 265 259 254 253 248 244 238 228 229 240 252 267 282 290 293 294 290 282 273 266 265 262 257 252 252 257 263 266 265 265 264 258 253 252 248 247 251 257 263 269 272 278 284 289 291 289 279 267 256 250 247 248 250 251 251 254 257 260 262 265 266 267 268 271 274 277 281 285 289 293 296 300 302 304 306 307 309 308 309 310 303 306 306
268 263 260 257 255 257 255 250 244 233 225 225 232 244 264 285 295 299 299 292 286 278 268 260 256 252 250 255 264 270 269 267 267 261 251 252 254 251 254 259 263 268 275 282 288 292 294 292 285 274 262 252 248 247 247 249 251 251 253 257 259 261 262 263 264 266 269 272 275 279 283 288 291 294 297 299 301 303 305 306 307 304 300 299 296
268 265 261 259 257 257 258 257 253 245 231 219 219 223 233 256 277 291 298 299 297 288 280 272 264 260 260 266 272 272 273 274 273 266 254 253 256 256 258 261 265 272 280 286 289 292 294 291 287 281 271 258 249 246 244 246 249 250 251 254 256 258 260 261 263 264 266 268 270 274 278 283 287 290 292 295 297 299 301 302 301 298 297 295 292
275 278 273 266 259 254 253 255 258 256 243 224 216 212 214 223 235 258 278 292 298 298 297 286 275 274 273 275 277 277 280 285 284 277 267 263 263 262 263 267 272 278 283 286 288 289 290 290 289 289 284 271 256 248 243 243 246 249 250 252 254 256 258 259 261 262 263 266 268 270 274 277 281 284 287 290 292 295 297 298 298 297 298 297 293
287 289 288 276 259 246 243 248 254 257 252 238 220 210 209 213 216 221 232 262 284 297 301 293 287 287 284 283 286 287 287 289 292 285 273 270 268 267 268 271 275 279 282 285 287 287 288 290 293 295 296 287 270 258 250 245 243 247 250 252 253 255 256 257 259 260 261 263 265 267 270 272 275 278 282 285 287 290 293 294 296 298 298 296 291
290 286 284 278 262 244 239 243 246 250 251 245 234 220 211 211 212 210 210 225 248 271 283 289 295 293 289 286 287 288 289 290 292 288 282 278 275 272 271 274 278 281 283 285 287 289 290 292 296 300 303 300 285 268 259 253 247 245 247 250 253 254 255 256 257 258 259 261 263 265 267 269 271 274 277 280 283 285 288 290 293 295 294 293 288
282 278 276 274 265 250 239 238 240 243 244 243 238 227 221 217 212 208 205 206 214 229 247 263 272 273 274 276 279 283 287 289 286 284 284 283 284 287 288 288 286 284 284 287 288 291 293 296 299 301 305 305 295 276 265 261 257 252 248 249 251 252 253 255 256 257 259 260 262 263 265 267 269 271 274 276 279 281 283 286 287 289 290 290 287
277 272 266 264 261 255 242 236 238 242 241 240 234 226 224 220 211 205 202 204 208 211 219 233 242 249 255 256 257 262 269 275 280 282 283 284 286 290 293 292 288 287 287 289 291 295 298 299 299 301 305 307 301 288 277 272 269 264 257 253 252 252 252 253 254 256 258 259 260 262 263 265 267 269 272 274 276 278 279 281 283 285 286 286 286
266 217 213 226 235 233 220 228 234 241 244 241 238 230 222 215 206 195 191 194 202 207 212 221 230 240 249 250 249 249 250 252 256 262 266 272 278 283 288 287 285 287 288 290 294 297 299 299 300 302 305 308 305 300 295 289 284 280 271 263 259 257 254 252 253 254 256 257 259 261 262 264 265 266 269 271 273 275 276 278 280 281 282 283 282
98 108 115 126 138 143 159 185 213 221 234 233 237 231 217 209 194 181 185 184 181 182 193 211 222 235 247 254 257 255 250 247 249 253 252 253 256 262 274 281 280 282 284 287 289 291 294 293 294 298 302 306 306 304 304 301 297 293 287 279 271 266 261 258 255 254 255 256 257 259 261 261 262 264 265 267 269 272 275 276 278 279 279 280 279
96 91 82 78 83 82 81 98 152 150 172 218 222 216 205 197 182 175 182 178 166 165 174 188 193 212 228 239 250 255 260 261 260 259 257 256 254 252 255 262 265 269 272 275 278 284 289 287 290 296 298 298 300 301 303 303 302 299 296 290 284 279 273 266 261 258 256 257 258 259 259 259 261 262 263 265 266 269 271 273 274 276 277 279 279
95 84 79 77 81 77 75 88 88 77 74 105 174 209 209 195 188 188 184 169 171 186 194 197 199 208 220 230 244 251 259 264 262 262 264 265 263 258 254 255 255 255 255 257 260 268 276 283 292 298 295 293 296 298 301 302 301 298 297 295 293 291 285 276 267 262 260 260 260 259 259 260 261 262 262 262 264 266 268 270 271 274 276 277 278
101 94 94 91 89 90 95 93 87 85 89 90 94 123 144 146 162 166 161 162 182 209 216 221 227 232 239 246 252 251 248 249 254 259 262 263 267 266 264 263 262 260 258 256 257 260 266 280 290 292 292 294 295 298 300 299 298 298 298 298 296 294 290 285 277 270 266 264 263 263 262 263 262 262 263 262 263 264 265 267 269 271 273 274 276
100 96 92 90 89 92 93 90 89 92 91 89 90 93 94 88 89 96 93 104 125 170 217 237 251 250 253 256 258 258 254 253 254 256 256 257 261 264 265 264 264 264 264 265 266 267 270 276 279 280 283 286 288 291 294 295 295 297 299 297 296 294 290 288 284 279 274 270 268 267 266 265 265 264 263 263 262 263 263 265 267 268 270 272 273
93 91 88 87 88 87 87 86 87 87 85 85 87 85 83 81 82 86 84 85 88 79 73 61 21 306 281 275 271 269 265 263 261 261 261 260 260 261 262 263 264 265 266 267 268 268 269 269 270 273 276 278 281 284 288 291 292 295 297 294 295 296 294 292 290 287 285 281 276 273 270 268 268 267 265 264 263 263 263 263 264 266 267 269 271
92 91 89 87 86 85 84 85 85 84 84 84 83 80 80 81 82 83 83 83 82 77 74 71 62 51 34 1 325 300 287 279 274 272 271 270 269 268 267 268 268 267 267 267 267 267 266 264 265 268 272 275 278 280 283 286 288 292 292 290 294 297 296 298 298 294 293 292 286 282 278 275 273 270 267 266 266 265 264 263 263 263 264 267 269
92 89 87 85 83 83 81 81 81 81 81 80 79 79 79 81 82 83 83 82 83 83 81 78 74 70 65 55 42 23 353 324 306 297 289 285 283 281 280 278 276 274 271 269 268 266 264 263 263 264 268 272 274 275 275 277 280 283 284 284 287 288 290 298 300 295 292 291 290 289 287 286 283 278 273 270 268 266 265 264 264 263 263 265 267
87 84 83 82 80 79 78 76 76 75 75 74 74 75 75 78 79 82 84 85 87 87 84 81 81 79 75 69 63 55 43 24 1 339 319 308 300 296 293 290 287 283 279 275 272 269 267 265 264 264 265 269 271 272 271 273 275 275 278 280 280 281 285 291 294 292 290 287 286 286 286 287 287 285 284 281 277 274 270 268 266 265 264 264 265
83 82 80 78 76 75 74 73 72 72 72 72 71 72 73 75 75 77 81 81 80 81 81 80 79 77 76 74 72 71 66 55 42 25 2 340 325 316 310 305 301 297 292 286 280 275 272 269 269 268 267 268 270 272 273 273 274 272 274 279 282 284 285 285 285 287 290 289 285 283 281 281 282 283 284 284 285 284 281 278 274 270 267 265 264
83 81 77 75 72 70 68 68 68 69 71 70 69 68 67 66 64 61 65 68 70 76 80 80 78 77 77 75 71 71 68 62 55 46 36 19 358 342 332 324 319 313 309 304 296 288 280 274 271 270 268 269 270 273 274 275 276 275 274 274 278 281 283 283 282 281 283 285 286 285 283 282 282 282 282 282 282 284 284 284 282 279 274 269 266
84 79 75 71 68 66 63 62 63 64 65 64 60 58 56 53 52 47 50 60 67 73 79 80 81 80 78 76 69 61 56 51 47 43 40 34 24 13 1 349 339 332 327 322 313 304 296 287 281 275 271 269 268 270 272 274 275 277 277 275 274 275 276 279 280 280 280 281 285 288 288 287 284 281 280 281 281 281 281 280 279 279 279 276 273
84 77 73 70 67 65 60 57 58 57 56 54 47 46 47 45 45 44 47 58 68 75 80 81 81 80 76 75 69 58 48 39 36 33 31 32 29 23 17 10 6 1 354 348 340 329 319 310 301 293 285 278 272 269 270 271 272 274 276 277 277 276 276 276 277 279 282 283 285 288 289 289 287 283 280 280 279 279 278 278 276 275 275 275 276
85 80 75 71 67 64 58 53 56 56 52 49 43 42 46 45 47 52 56 65 75 80 78 75 77 75 64 63 59 53 46 36 30 23 20 23 22 17 16 13 10 8 5 6 4 1 356 347 336 322 310 300 291 282 277 274 273 273 273 275 276 277 278 278 278 278 280 282 284 286 286 285 285 283 280 279 278 276 276 275 274 273 272 271 272